Location: Boca do Mato
(22.9085°S, 43.2930°W)
Time: 22:43:52
(UTC+00:00)

MOS 1-B - Pass Details

Date: 14 July 2020
Orbit: 906 x 913 km, 99.4° (Epoch: 10 August)

Event Time Altitude Azimuth Distance (km) Brightness Sun altitude
Rises 07:40:29 0° 19° (NNE) 3,524 7.9 -25.6°
Reaches altitude 10° 07:42:53 10° 21° (NNE) 2,588 7.1 -25.0°
Maximum altitude 07:48:39 73° 105° (ESE) 953 4.5 -23.7°
Enters shadow 07:54:23 10° 188° (S) 2,583 6.5 -22.5°
